Temperature
18 16 16 16 16 17 17 17 17 17 18 18 17 17 17 17 17 17 17 18 18 19 19 19 19 18 18 18 18 18 17 17 17 16 16 16 16 15 15 15 15 15 15 15
16 16 17 17 17 17 17 17 17 17 18 18 17 17 17 17 17 18 18 18 18 19 19 19 19 19 18 18 18 18 18 17 17 17 16 16 16 15 15 15 15 15 15 15
16 17 18 18 17 17 17 17 17 17 17 17 17 17 17 17 17 18 18 19 19 19 19 19 19 19 19 18 18 18 18 17 17 17 16 16 16 15 15 15 15 15 15 15
16 17 18 18 17 17 17 17 17 17 16 15 17 16 16 16 16 17 18 18 19 19 19 19 19 19 19 19 18 18 18 17 17 17 16 16 16 16 15 15 15 15 15 15
17 17 18 17 17 17 17 17 17 16 16 15 16 15 15 16 16 16 17 18 19 19 19 19 19 19 19 19 18 18 18 17 17 17 16 16 16 16 15 15 15 15 15 15
17 17 18 18 17 17 17 16 15 14 14 15 16 15 15 15 16 17 18 18 19 19 19 19 19 19 19 19 18 18 18 17 17 17 17 16 16 16 16 15 15 15 15 15
17 17 17 17 17 17 16 15 15 15 14 15 16 15 16 17 17 18 18 19 19 20 19 19 19 19 19 19 19 18 18 18 17 17 17 16 16 16 16 16 15 15 15 15
16 16 17 17 17 16 16 15 15 15 15 15 15 15 16 18 18 19 19 19 19 20 20 20 20 20 19 19 19 18 18 18 18 17 17 17 16 16 16 16 15 15 15 15
15 16 17 17 17 16 16 15 15 14 15 15 15 15 16 18 17 17 18 19 19 19 20 20 20 20 20 19 19 19 18 18 18 17 17 17 17 16 16 16 16 15 15 15
16 16 17 17 17 16 16 15 14 14 15 15 15 16 16 17 17 17 17 18 19 19 20 20 20 20 20 19 19 19 18 18 18 18 17 17 17 16 16 16 16 16 15 15
16 16 16 17 17 16 15 15 14 13 14 15 15 16 17 17 17 17 17 18 19 19 20 20 20 20 20 19 19 19 18 18 18 18 17 17 17 17 16 16 16 16 15 15
15 14 15 16 17 17 16 16 14 15 15 14 14 15 18 17 17 18 18 18 19 19 20 20 20 20 20 19 19 19 18 18 18 18 17 17 17 17 17 16 16 16 16 15
16 15 15 16 16 16 16 16 15 14 14 13 14 16 18 17 17 18 18 19 19 19 19 20 20 20 20 20 19 19 19 18 18 18 17 17 17 17 17 17 16 16 16 15
16 15 15 16 16 16 16 16 15 15 14 14 15 16 17 17 17 17 18 19 19 19 19 20 20 20 20 20 19 19 19 18 18 18 18 17 17 17 17 17 16 16 16 15
16 16 16 16 17 17 17 17 16 15 15 15 16 16 18 18 17 18 18 19 19 19 19 20 20 20 20 20 19 19 19 19 18 18 18 18 17 17 17 17 16 16 16 16
15 16 16 17 17 17 17 17 17 16 16 16 16 17 18 18 18 18 18 18 18 19 19 20 20 20 20 20 20 19 19 19 18 18 18 18 17 17 17 17 17 16 16 16
14 15 16 16 17 17 17 17 17 17 16 16 17 17 18 17 17 18 18 18 19 19 20 20 20 20 20 20 20 20 19 19 19 18 18 18 17 17 17 17 17 16 16 16
14 14 14 15 17 17 17 18 18 17 18 17 17 17 17 18 19 19 19 19 20 20 20 20 21 21 21 20 20 20 19 19 19 18 18 18 18 17 17 17 17 16 16 16
14 14 14 14 16 16 18 18 17 17 17 18 17 18 18 19 19 19 20 20 21 21 21 21 21 21 20 20 20 20 19 19 19 19 18 18 18 17 17 17 17 16 16 16
13 14 14 14 16 16 18 18 18 18 18 18 18 17 18 18 17 18 20 20 21 21 21 21 21 21 20 20 20 20 19 19 19 19 19 18 18 18 17 17 17 16 16 16
14 14 14 14 15 16 17 17 18 18 18 19 19 18 18 18 18 20 20 21 21 21 21 21 21 21 20 20 20 20 19 19 19 19 18 18 18 18 17 17 16 16 16 15
14 13 13 13 15 16 17 17 17 18 19 19 19 20 19 20 20 20 21 21 21 21 21 21 21 20 20 20 20 20 19 19 19 19 18 18 18 17 17 17 16 16 16 15
14 14 14 14 16 17 17 18 19 20 19 20 20 20 20 20 20 20 20 20 20 21 21 20 20 20 20 20 20 20 20 19 19 19 18 18 18 17 17 17 16 16 16 15
13 13 13 14 14 16 17 18 19 20 20 20 20 20 20 20 20 20 20 20 20 20 20 20 20 20 20 20 19 19 19 19 19 19 18 18 18 17 17 17 16 16 16 16
13 13 13 14 15 16 17 19 19 20 20 20 20 20 20 20 20 20 20 20 20 20 20 19 19 19 19 19 19 19 19 19 18 18 18 18 18 17 17 17 17 16 16 16
12 13 14 15 16 15 17 18 19 20 20 20 20 20 20 20 20 20 20 19 19 19 19 19 19 19 19 19 19 19 18 18 18 18 18 18 17 17 17 17 16 16 16 15
Wind_Speed
4 5 2 3 4 4 4 3 1 2 1 2 4 4 6 7 7 7 7 7 8 8 5 4 5 5 5 5 6 6 7 6 5 4 4 3 2 2 3 5 6 7 7 7
6 2 3 3 4 4 3 2 1 2 0 2 2 3 4 7 8 9 9 9 9 7 4 5 5 5 6 6 6 5 7 7 5 4 3 3 3 2 2 3 6 8 7 7
3 3 1 4 4 3 2 4 4 2 1 3 2 2 3 5 5 6 7 8 8 10 9 8 6 6 6 7 7 7 7 6 5 5 4 4 4 3 3 4 3 5 6 7
1 2 2 3 2 4 2 3 4 3 3 1 1 2 6 6 6 8 9 9 9 9 9 8 8 8 8 7 6 7 7 6 5 6 6 6 4 2 1 1 2 4 7 7
2 1 2 2 2 4 3 2 3 3 3 1 0 2 6 4 8 11 11 11 11 10 11 11 10 10 8 7 7 7 7 6 5 5 6 6 4 2 1 2 3 4 5 6
3 2 2 2 1 3 5 6 5 4 3 1 4 4 6 6 11 11 12 12 12 12 11 10 9 8 7 6 6 7 7 6 5 6 6 6 7 5 4 3 2 2 3 3
3 2 1 2 4 3 4 5 3 3 2 4 3 4 8 8 10 13 14 14 13 12 12 11 10 10 9 9 8 8 8 6 6 6 6 6 6 6 5 3 2 2 2 2
1 3 2 3 5 5 4 6 5 4 3 4 2 6 7 6 7 9 11 11 12 12 12 13 13 12 11 11 9 9 9 7 7 7 6 5 5 4 4 4 3 3 1 1
5 4 1 2 2 7 5 3 5 5 2 2 5 6 8 3 2 3 7 10 12 13 13 13 13 12 12 12 11 11 10 8 7 7 6 6 5 5 5 4 3 2 1 1
7 3 1 1 4 3 4 6 4 3 2 2 5 5 4 4 2 3 6 10 11 11 12 12 12 12 12 11 10 9 9 9 7 7 6 6 5 5 5 5 4 3 2 2
5 3 2 1 4 6 4 4 4 3 3 3 3 6 5 5 5 5 7 9 11 12 13 12 12 11 10 9 9 9 9 8 7 7 6 6 5 5 5 5 4 4 3 3
5 4 2 4 3 4 5 6 6 4 3 3 2 7 6 5 5 5 6 7 9 11 11 11 11 11 10 11 10 10 9 8 8 7 7 6 6 6 5 5 4 4 4 4
7 5 2 3 3 1 3 4 5 5 4 4 3 7 4 3 3 4 5 6 7 9 10 9 10 12 12 12 11 10 10 9 8 8 8 7 6 6 6 5 5 5 5 4
6 5 5 7 6 5 4 5 6 6 4 5 7 9 10 7 4 3 4 6 7 9 11 12 11 11 11 11 11 11 10 9 9 8 8 8 8 7 6 6 6 6 5 5
6 4 5 6 5 4 5 6 9 8 8 8 7 8 11 8 5 4 4 5 7 9 11 13 13 11 11 10 10 10 10 9 10 9 9 8 7 6 6 6 6 5 5 5
4 5 3 2 3 5 5 7 10 10 8 8 7 9 9 5 2 2 4 7 9 10 11 12 12 12 12 12 12 11 11 10 10 10 10 8 8 7 7 7 6 6 5 5
5 6 4 2 2 1 5 8 10 7 7 8 9 10 5 2 2 4 5 8 9 10 11 12 12 13 13 13 13 13 12 10 11 10 9 9 9 8 7 7 7 7 6 5
8 6 4 2 2 4 7 4 6 7 7 9 8 7 6 6 4 3 4 7 8 9 10 10 11 11 10 9 9 9 10 11 11 10 9 9 9 8 8 7 7 6 5 5
5 7 4 3 2 6 7 3 4 5 5 6 8 6 3 1 2 3 3 5 7 8 8 9 10 9 9 10 10 10 10 10 10 10 10 10 10 10 9 9 8 6 5 5
5 5 5 4 3 5 7 3 2 3 4 4 6 6 4 5 2 4 3 3 4 5 6 7 7 7 9 9 11 12 11 11 12 12 11 10 10 11 11 10 7 5 5 5
4 4 5 5 4 7 7 4 4 4 6 3 5 5 6 5 5 3 1 2 3 4 5 7 8 8 9 10 11 11 11 12 12 9 9 9 10 10 10 8 6 6 6 6
7 6 5 5 4 7 4 4 6 6 3 1 2 3 5 4 1 1 1 2 2 3 4 6 7 6 6 9 11 11 11 10 8 9 9 9 9 8 8 8 7 7 7 7
7 8 7 8 7 4 3 5 4 2 2 1 2 2 5 4 2 2 2 2 3 4 4 5 6 6 5 7 10 11 9 7 9 9 9 8 8 7 8 9 9 7 7 6
3 2 4 3 5 4 3 3 2 1 2 1 2 3 4 4 3 3 3 3 3 3 3 4 6 6 5 5 6 7 6 8 9 9 8 8 8 7 7 7 8 8 8 7
5 5 4 3 4 2 2 2 1 1 3 5 4 4 4 5 4 3 3 3 3 3 3 4 5 5 5 5 5 5 6 8 8 8 7 7 7 8 7 7 6 8 8 9
5 6 7 6 6 5 4 2 2 3 3 4 5 5 4 4 4 4 3 2 3 3 3 3 3 3 3 4 4 4 6 8 8 7 6 6 6 6 6 6 3 3 5 8
Wind_Direction
38 68 108 184 165 150 135 129 160 253 236 168 191 205 201 188 185 193 197 194 200 211 215 190 180 161 141 135 137 140 137 137 129 114 104 93 70 32 29 38 46 54 58 62
46 25 228 165 138 119 132 139 225 289 291 158 195 234 220 197 198 200 199 202 201 197 192 187 175 162 160 160 157 153 153 152 150 131 120 115 109 70 40 30 42 43 52 58
153 241 183 134 123 132 181 186 200 207 43 48 96 316 245 224 210 209 204 200 197 195 192 188 181 179 172 173 173 170 166 159 154 133 110 88 63 45 32 24 20 21 45 58
226 256 151 133 153 150 220 216 183 162 121 320 128 243 256 221 213 218 214 203 201 199 191 186 182 182 185 186 175 162 158 158 155 146 140 134 127 118 80 22 23 26 44 53
264 192 156 162 197 161 187 114 100 104 118 54 61 192 272 209 221 225 217 208 203 198 192 190 189 187 183 176 167 158 150 154 154 151 147 134 127 128 99 64 57 40 33 44
240 232 194 179 114 135 127 81 67 50 70 267 220 193 267 217 214 215 214 208 199 194 193 191 186 171 167 164 159 151 151 155 154 149 147 149 148 142 125 99 79 48 30 27
337 324 252 137 104 69 98 99 51 13 360 254 224 210 250 237 217 210 207 204 196 188 186 181 178 174 171 169 167 160 157 162 161 155 158 162 160 155 154 150 135 106 56 29
194 293 238 181 167 163 162 141 155 189 224 280 258 236 256 262 243 221 206 196 187 185 185 185 184 180 177 175 172 165 165 168 168 165 167 164 160 155 157 158 150 140 127 89
182 249 281 187 155 136 136 160 161 139 174 266 273 280 298 292 297 213 194 185 188 188 185 185 181 179 178 177 178 174 169 170 174 170 160 158 161 159 161 153 142 136 131 114
159 209 292 149 94 54 140 142 110 125 160 266 297 283 265 290 276 217 194 192 193 187 185 183 180 180 180 178 175 169 168 172 173 166 163 163 165 165 158 145 146 145 132 104
143 157 319 116 181 174 126 121 120 125 155 164 288 280 231 230 226 219 211 199 189 185 185 184 180 177 171 165 166 167 169 166 165 165 161 153 157 156 148 147 154 152 139 128
145 128 221 253 251 181 168 170 153 157 202 180 208 271 271 243 240 223 215 199 188 185 182 177 172 166 166 169 171 171 173 174 173 165 158 156 154 152 153 157 157 151 146 139
146 128 100 350 350 147 179 178 168 141 133 167 198 269 302 315 286 236 212 193 179 172 169 164 165 171 174 176 176 175 177 178 167 158 155 155 158 161 165 163 155 148 143 140
130 133 170 197 220 195 198 188 168 150 173 209 226 258 291 302 295 264 218 192 176 171 169 169 175 179 179 178 179 178 179 173 164 160 161 167 174 173 169 159 153 150 147 145
134 170 210 231 226 191 206 205 188 194 201 209 236 244 267 273 258 238 194 175 169 171 172 177 181 181 178 178 179 179 177 171 167 164 171 180 175 163 156 153 153 147 146 150
146 170 178 270 240 213 239 237 215 213 216 227 250 267 262 265 218 194 182 173 179 183 183 184 182 180 183 184 182 179 179 175 168 172 179 173 162 161 163 161 154 149 147 144
158 148 144 259 305 80 273 236 209 207 207 198 225 244 261 286 231 212 199 188 189 189 187 186 187 187 189 188 182 183 180 168 170 176 174 169 167 167 169 164 156 160 161 154
150 142 143 158 90 242 252 247 198 208 229 213 227 247 242 234 229 209 199 196 198 192 188 190 189 188 184 178 175 170 163 165 172 175 174 172 170 169 163 161 167 168 160 162
148 139 133 140 199 280 292 263 181 191 253 226 225 243 239 209 65 325 247 207 203 196 190 188 186 180 171 171 167 158 162 167 173 181 181 179 174 170 167 173 176 170 163 168
88 110 124 134 162 236 257 270 194 126 290 249 207 214 187 128 113 273 266 208 193 179 175 167 159 153 162 168 160 161 169 174 188 191 186 179 175 174 178 181 174 165 166 172
112 109 142 159 202 255 259 268 133 155 243 250 193 191 170 173 197 232 207 177 170 163 155 150 150 160 170 163 161 169 176 191 195 181 170 171 177 180 177 171 166 158 157 154
166 158 172 155 185 248 250 147 176 215 244 192 181 176 166 175 173 149 139 129 119 119 124 143 152 160 158 161 165 175 192 195 170 162 167 173 176 177 172 163 161 156 154 156
186 185 179 183 206 237 231 217 245 205 193 206 151 153 148 135 122 104 103 104 115 127 135 145 152 150 152 167 172 184 195 166 157 161 171 172 169 169 162 165 164 159 161 166
234 159 148 202 254 258 263 258 275 229 179 141 118 121 121 114 101 83 94 97 98 101 126 135 137 146 164 179 183 187 169 157 159 167 171 168 167 166 165 167 169 171 177 179
199 162 156 211 260 297 300 252 247 67 85 85 78 87 108 109 92 84 93 98 112 106 116 135 149 163 176 175 177 167 153 152 158 165 167 169 170 170 172 177 184 186 193 189
193 175 171 206 210 183 219 231 165 121 105 111 101 80 73 94 100 85 86 95 108 112 117 121 131 146 160 161 162 154 154 156 157 161 167 171 171 171 172 172 174 206 198 201
Height
1513 1518 1522 1521 1521 1522 1524 1528 1531 1528 1523 1525 1527 1527 1527 1527 1530 1531 1533 1535 1537 1540 1543 1545 1548 1550 1552 1554 1555 1557 1558 1559 1560 1560 1561 1561 1561 1561 1561 1560 1560 1560 1559 1559
1519 1521 1518 1517 1518 1521 1524 1528 1530 1527 1523 1525 1528 1528 1526 1526 1527 1529 1531 1533 1535 1538 1541 1544 1547 1549 1551 1553 1555 1557 1558 1559 1561 1561 1562 1562 1562 1562 1562 1562 1562 1561 1561 1560
1520 1519 1515 1517 1520 1523 1525 1528 1528 1528 1526 1526 1529 1532 1528 1526 1526 1528 1529 1531 1534 1536 1539 1543 1546 1548 1551 1553 1555 1557 1559 1560 1561 1562 1563 1563 1563 1563 1563 1563 1563 1563 1562 1562
1518 1516 1516 1518 1520 1522 1527 1522 1523 1526 1532 1537 1533 1543 1531 1526 1525 1525 1526 1529 1531 1534 1537 1541 1544 1547 1550 1553 1555 1557 1559 1561 1562 1563 1564 1564 1564 1564 1565 1565 1564 1564 1564 1564
1519 1516 1516 1519 1519 1519 1523 1521 1524 1527 1532 1538 1536 1541 1534 1525 1526 1522 1522 1524 1527 1531 1535 1538 1542 1546 1549 1552 1555 1557 1559 1561 1562 1563 1564 1565 1565 1566 1566 1566 1566 1566 1566 1565
1516 1514 1515 1516 1517 1518 1520 1525 1529 1533 1537 1545 1537 1541 1536 1525 1518 1516 1517 1520 1523 1528 1532 1536 1540 1544 1548 1551 1554 1556 1559 1561 1562 1564 1565 1566 1566 1567 1567 1567 1567 1567 1567 1567
1519 1516 1514 1515 1519 1520 1522 1533 1545 1547 1550 1546 1534 1536 1529 1512 1508 1508 1510 1514 1519 1524 1528 1533 1537 1541 1546 1549 1552 1555 1558 1560 1562 1564 1565 1566 1567 1568 1568 1568 1568 1569 1569 1569
1526 1526 1516 1514 1517 1522 1524 1530 1545 1551 1552 1545 1535 1535 1519 1505 1503 1503 1506 1510 1515 1520 1524 1529 1534 1538 1543 1547 1551 1554 1557 1559 1562 1563 1565 1566 1567 1568 1569 1569 1570 1570 1570 1570
1525 1524 1513 1512 1513 1517 1525 1529 1529 1540 1541 1545 1538 1528 1513 1502 1501 1501 1503 1507 1511 1516 1521 1526 1531 1536 1541 1545 1549 1553 1556 1559 1561 1563 1565 1566 1568 1569 1569 1570 1571 1571 1571 1571
1515 1522 1515 1513 1514 1516 1519 1524 1533 1538 1545 1548 1538 1530 1521 1507 1503 1501 1502 1504 1508 1512 1518 1523 1528 1533 1538 1543 1547 1551 1555 1558 1560 1563 1565 1566 1568 1569 1570 1571 1571 1572 1572 1572
1511 1520 1519 1516 1517 1520 1522 1525 1530 1536 1538 1545 1545 1532 1506 1503 1500 1500 1500 1502 1505 1509 1514 1519 1525 1530 1536 1541 1545 1549 1553 1557 1559 1562 1564 1566 1567 1569 1570 1571 1572 1572 1573 1573
1510 1519 1524 1518 1512 1511 1514 1519 1526 1535 1538 1539 1540 1530 1498 1498 1497 1497 1498 1499 1502 1507 1511 1517 1522 1527 1533 1538 1543 1547 1551 1555 1558 1561 1563 1565 1567 1569 1570 1571 1572 1572 1573 1574
1507 1518 1527 1525 1522 1516 1515 1516 1519 1525 1532 1538 1539 1524 1497 1496 1495 1495 1496 1497 1500 1505 1509 1514 1520 1525 1530 1535 1540 1544 1549 1553 1556 1559 1562 1564 1566 1568 1569 1570 1571 1572 1573 1574
1501 1513 1521 1525 1520 1514 1514 1514 1516 1522 1530 1532 1527 1516 1500 1496 1495 1494 1494 1496 1499 1502 1507 1512 1517 1522 1527 1532 1537 1541 1546 1550 1554 1557 1560 1562 1565 1567 1568 1570 1571 1572 1573 1574
1500 1510 1510 1509 1506 1507 1508 1508 1511 1516 1516 1521 1515 1510 1500 1494 1493 1493 1493 1495 1497 1501 1504 1509 1514 1519 1524 1529 1534 1538 1543 1548 1551 1555 1558 1561 1563 1565 1567 1569 1570 1571 1572 1573
1499 1505 1507 1507 1503 1505 1506 1504 1505 1507 1508 1509 1507 1504 1492 1491 1491 1491 1492 1494 1496 1498 1502 1506 1511 1515 1520 1525 1530 1535 1540 1544 1548 1552 1555 1559 1561 1563 1565 1567 1569 1570 1571 1572
1500 1505 1510 1513 1506 1506 1510 1498 1499 1500 1499 1501 1503 1496 1489 1490 1490 1490 1490 1492 1493 1496 1500 1503 1507 1512 1517 1522 1526 1531 1536 1541 1545 1549 1553 1556 1559 1561 1563 1565 1567 1569 1570 1571
1497 1503 1510 1513 1510 1516 1501 1488 1488 1491 1491 1491 1490 1488 1487 1487 1487 1488 1488 1490 1492 1494 1498 1501 1505 1510 1514 1519 1524 1529 1533 1538 1542 1546 1549 1553 1556 1559 1561 1563 1565 1567 1568 1569
1491 1499 1510 1515 1515 1509 1494 1486 1487 1490 1489 1484 1485 1485 1485 1486 1487 1487 1487 1488 1490 1492 1496 1499 1503 1508 1512 1517 1521 1526 1530 1534 1538 1542 1546 1549 1553 1555 1558 1560 1562 1564 1566 1567
1493 1495 1506 1513 1512 1513 1495 1483 1482 1487 1490 1480 1480 1482 1483 1485 1491 1488 1486 1487 1489 1491 1494 1498 1502 1506 1510 1514 1519 1523 1527 1530 1534 1538 1542 1546 1549 1552 1555 1557 1559 1561 1563 1564
1498 1501 1506 1510 1510 1502 1486 1481 1483 1495 1490 1477 1478 1479 1481 1483 1485 1485 1485 1486 1488 1490 1493 1496 1500 1504 1508 1512 1516 1520 1524 1527 1531 1535 1539 1543 1546 1549 1552 1554 1556 1558 1560 1561
1494 1500 1505 1508 1509 1502 1481 1481 1484 1482 1476 1476 1476 1477 1479 1480 1482 1484 1484 1485 1487 1489 1492 1495 1498 1502 1506 1510 1513 1517 1520 1524 1529 1532 1536 1539 1542 1545 1548 1550 1553 1555 1556 1558
1486 1486 1489 1491 1491 1480 1478 1477 1477 1476 1475 1475 1476 1477 1478 1479 1481 1482 1483 1485 1487 1489 1491 1494 1497 1501 1504 1507 1511 1514 1518 1522 1525 1529 1532 1536 1539 1542 1544 1547 1549 1551 1552 1554
1480 1479 1482 1484 1480 1477 1476 1475 1475 1475 1475 1475 1476 1477 1478 1479 1481 1482 1483 1485 1487 1489 1491 1494 1497 1499 1502 1505 1508 1512 1515 1519 1522 1525 1529 1532 1535 1538 1540 1543 1545 1547 1548 1550
1474 1477 1479 1480 1476 1475 1474 1474 1474 1475 1475 1476 1477 1478 1480 1481 1482 1483 1484 1485 1487 1489 1491 1493 1496 1498 1500 1503 1506 1509 1513 1516 1519 1522 1525 1528 1531 1534 1536 1539 1541 1543 1545 1547
1471 1472 1475 1475 1471 1472 1473 1473 1474 1475 1476 1477 1478 1479 1481 1482 1483 1484 1485 1486 1488 1489 1491 1493 1495 1497 1499 1502 1504 1507 1510 1513 1516 1519 1522 1525 1527 1530 1532 1535 1537 1539 1541 1543